sat.trackr.live / text

‹ back to catalog

STARLINK-32162

NORAD 60597 · 2024-150Q

PAYLOAD ACTIVE UNKNOWN

§ Identity

Operator
Country
US
Launch date
2024-08-20
Launch site
AFETR
Launch vehicle
Mass (kg)
RCS (m²)

Purposes: comms

External: N2YO · Heavens-Above · Gunter

§ Orbital elements

Epoch: 2026-05-24T21:25:30.417024Z

Period
94.11 min
Inclination
53.1611°
Eccentricity
0.0001141
Mean motion
15.30196419 rev/d
Perigee alt
474.4 km
Apogee alt
476.0 km
Semi-major
6,853.4 km
B*
2.6178e-5
RAAN
313.4083°
Arg perigee
109.0392°
Mean anomaly
251.0733°
Rev number
9,970

§ Raw data

STARLINK-321621 60597U 24150Q   26144.89271316  .00000416  00000+0  26178-4 0  99912 60597  53.1611 313.4083 0001141 109.0392 251.0733 15.30196419 99704

JSON: /api/v1/satellites/60597 · /tle

For live sub-satellite position, see the globe view (requires WebGL).

§ Visibility from observer

Set your observer location to see the next 7 days of passes ≥ 10°. The values pass through the URL so the page stays shareable.

No JS? Fill the form by hand. The geolocation button needs JavaScript.